Location: Pallagorio
(39.3000°N, 16.9000°E)
Time: 17:36:41
(UTC+00:00)

Aureole 3 Rocket - Pass Details

Date: 24 January 2021
Orbit: 398 x 1740 km, 82.5° (Epoch: 02 March)

Event Time Altitude Azimuth Distance (km) Brightness Sun altitude
Rises 17:40:36 0° 354° (N) 2,339 6.0 -18.7°
Reaches altitude 10° 17:42:28 10° 356° (N) 1,518 5.0 -19.1°
Maximum altitude 17:45:40 75° 83° (E) 494 2.3 -19.7°
Drops below altitude 10° 17:49:34 10° 169° (S) 1,855 5.5 -20.4°
Sets 17:52:03 0° 171° (S) 2,931 6.5 -20.9°
